Regional Weather Roundup
Issued by NWS Cleveland, OH

Home | Current Version | Previous Version | Graphics & Text | Print | Product List | Glossary On
Versions: 1 2 3 4 5 6 7 8 9 10 11 12 13 14 15 16 17 18 19 20 21 22 23 24 25 26 27 28 29 30 31 32 33 34 35 36 37 38 39 40 41 42 43 44 45 46 47 48 49 50
000
ASUS41 KCLE 252202
RWRCLE
OHIO REGIONAL WEATHER ROUNDUP
NATIONAL WEATHER SERVICE CLEVELAND, OH
500 PM EST THU DEC 25 2014

NOTE: "FAIR" INDICATES FEW OR NO CLOUDS BELOW 12,000 FEET WITH NO
SIGNIFICANT WEATHER AND/OR OBSTRUCTIONS TO VISIBILITY.

OHZ001>008-015>018-024>027-034-035-043-044-252300-
   NORTHWEST OHIO

CITY           SKY/WX    TMP DP  RH WIND       PRES   REMARKS
DEFIANCE       CLOUDY    38  30  73 SW12      30.09R
FINDLAY        CLOUDY    39  31  72 SW12      30.10R
TOLEDO EXPRESS CLOUDY    37  30  75 SW13      30.08R
TOLEDO EXEC    CLOUDY    38  30  73 SW14      30.10R
LIMA           CLOUDY    39  29  67 SW15      30.11R
$$

OHZ009>014-019>023-028>033-038-089-252300-
   NORTHEAST OHIO

CITY           SKY/WX    TMP DP  RH WIND       PRES   REMARKS
CLE-HOPKINS    CLOUDY    38  29  70 SW14      30.11R
CLE-LAKEFRONT  CLOUDY    40  29  64 SW16      30.09R
CUY CO. ARPT   CLOUDY    41  30  65 W15G24    30.08R
LORAIN-ELYRIA  CLOUDY    37  31  78 SW10      30.09R
ASHTABULA      CLOUDY    39  30  70 W8        30.07R
AKRON-CANTON   CLOUDY    39  28  64 W10       30.10R
WOOSTER        CLOUDY    37  29  72 W10       30.10R
MANSFIELD      CLOUDY    37  30  75 SW13      30.09R
YOUNGSTOWN     CLOUDY    38  28  67 W17G24    30.08R
$$

OHZ042-051>053-060>062-070>072-077>081-252300-
  SOUTHWEST OHIO

CITY           SKY/WX    TMP DP  RH WIND       PRES   REMARKS
CINC-COVINGTON CLOUDY    41  30  65 SW7       30.15R
CINC-LUNKEN    CLOUDY    41  33  73 SW10      30.17R
HAMILTON       MOCLDY    41  31  67 SW8       30.16R
DAYTON         CLOUDY    40  32  73 SW9       30.14R
WRIGHT-PAT AFB CLOUDY    40  32  74 SW10      30.13R
DAYTON GENERAL CLOUDY    40  31  70 SW9       30.12R
WILMINGTON     CLOUDY    38  31  76 SW10      30.13R
$$

OHZ036-037-039>041-045>050-054>059-063>069-073>076-082>088-252300-
  CENTRAL AND SOUTHEAST OHIO

CITY           SKY/WX    TMP DP  RH WIND       PRES   REMARKS
COLUMBUS       CLOUDY    39  30  70 SW10      30.14R
OSU AIRPORT    CLOUDY    39  30  70 SW8G18    30.14R
BOLTON FIELD   CLOUDY    39  32  75 SW14      30.15R
RICKENBACK AFB CLOUDY    39  32  76 SW6       30.15R
NEWARK         CLOUDY    40  30  67 SW8       30.14R
MARION         CLOUDY    38  29  70 SW12      30.12R
LANCASTER      CLOUDY    40  31  70 SW7       30.16R
ZANESVILLE     CLOUDY    39  31  72 W9        30.15R
NEW PHILLY     CLOUDY    40  29  64 W9        30.14R
$$



USA.gov is the U.S. government's official web portal to all federal, state and local government web resources and services.